Voltar ao catálogo

CARTOSAT 2C

AtivoCiênciaSSO
NORAD 41599·PAYLOAD·🇮🇳 India

Lançado Jun 22, 2016 de Satish Dhawan Space Centre

Loading…

Próximas Passagens (próximas 24 horas)

TLE

AtualizadoSource: Space-Track

Época: Sep 14, 2026, 15:15 UTC

1 41599U 16040A   26257.63576876  .00003954  00000-0  19060-3 0  9999
2 41599  97.4392 316.3369 0009015 173.8461 186.2886 15.19266271567298

Acompanhe CARTOSAT 2C em tempo real com AllMySat

Download on the App Store